Weather in Spasporub

Russia / Komi Republic     60°38′51″N   49°02′54″E
temp.,
°C
wind,
m/s
gust,
m/s
humid.,
%
clouds,
%
prec.,
mm/h
press.,
hPa
HPBL,
m
20 june, sun
sun2000:00+13n29684 0.0 1018250
03:00+10nnw23720 0.0 102153
06:00+15nne24565 0.0 1022360
09:00+19n23425 0.0 10211151
12:00+23nw233460 0.0 10211718
15:00+20n114795 0.0 1021373
18:00+20ese224611 0.0 1020398
21:00+14ese386993 0.0 1020197
21 june, mon
mon2100:00+14se31068100 0.1 1020254
03:00+13sse3108568 0.3 1019287
06:00+17s357832 0.0 1018286
09:00+24wsw2457100 0.0 1017562
12:00+29w4838100 0.0 10162740
15:00+31wnw463139 0.0 10152704
18:00+28wnw374022 0.0 1015599
21:00+21w22645 0.0 101644
22 june, tue
tue2200:00+19wnw22755 0.0 101720
03:00+18wnw117816 0.0 101811
06:00+23wnw13590 0.0 1018199
09:00+29wnw23400 0.0 1018869
12:00+32w34300 0.0 10172894
15:00+33w462887 0.0 10173271
18:00+30w25375 0.0 1016275
21:00+22w2107298 0.0 1017194
23 june, wed
wed2300:00+20nw227191 0.0 101745
03:00+19wnw118020 0.1 101817
06:00+23wnw13659 0.1 1018198
09:00+29wnw224698 0.1 1019927
12:00+32w23385 0.0 10181945
15:00+32w343578 0.0 10182260
18:00+31nw244412 0.1 1017640
21:00+19e249598 5.9 101878
24 june, thu
thu2400:00+18sw41196100 1.9 1018267
03:00+18sw31093100 2.0 1016210
06:00+22w398122 0.0 1016337
09:00+28wnw475295 0.0 1016944
12:00+31w4843100 0.0 10151827
15:00+32w4838100 0.0 10142414
18:00+22nnw71386100 2.0 1014532
21:00+20w2291100 8.3 101434